[[{"header":{"parameterUnit":"m.s-1","parameterCategory":1,"la1":30.2991,"la2":30.254,"lo1":-89.0895,"lo2":-89.0444,"dy":0.0017,"dx":0.0017,"nx":28,"ny":28,"refTime":"2024-05-16T21:00:00:Z","depth":0,"parameterNumber":2,"parameterNumberName":"U-component_of_WINDS"},"data":[0,0,0,0,0,0,0,0,0,0,0,0,0,0,0,0,0,0,0,0,0,0,0,0,0,0,0,0,0,0,0,0,0,0,0,0,0,0,0,0,0,0,0,0,0,0,0,0,0,0,0,0,0,0,0,0,0,0,-1.1776,-1.1776,0,-1.1827,-1.1828,-1.1828,-1.185,-1.185,-1.185,-1.185,-1.1902,-1.1904,-1.1905,0,0,0,0,0,0,0,0,0,0,0,0,0,-1.1698,-1.1699,-1.1776,-1.1776,-1.1777,-1.1827,-1.1828,-1.1828,-1.185,-1.185,-1.185,-1.185,-1.1902,-1.1904,-1.1905,0,0,0,0,0,0,0,0,0,0,0,0,0,-1.1738,-1.1699,-1.1776,-1.1794,-1.1796,-1.1827,-1.1828,-1.1828,-1.1851,-1.185,-1.185,-1.185,-1.1901,-1.1903,-1.1906,-1.1921,0,0,-1.1912,-1.1913,0,0,0,0,0,0,0,0,-1.1736,-1.1741,-1.1791,-1.1793,-1.1795,-1.1832,-1.1819,-1.186,-1.1851,-1.183,-1.185,-1.185,-1.1879,-1.1883,-1.1893,-1.1924,-1.1926,-1.1912,-1.1914,-1.1915,-1.1915,0,0,0,0,0,0,0,-1.1733,-1.1739,-1.1796,-1.1791,-1.1794,-1.18,-1.1806,-1.1827,-1.1854,-1.1832,-1.1833,-1.1839,-1.188,-1.1891,-1.1894,-1.1927,-1.1912,-1.1914,-1.1916,-1.1916,-1.1974,-1.1974,0,0,0,0,0,0,-1.1727,-1.1737,-1.1794,-1.1798,-1.1765,-1.1801,-1.1808,-1.1821,-1.1854,-1.1859,-1.1839,-1.184,-1.1887,-1.1892,-1.1896,-1.1917,-1.1915,-1.1917,-1.1918,-1.1974,-1.1974,-1.1974,0,0,0,0,0,0,-1.1726,-1.1732,-1.1792,-1.1768,-1.1776,-1.1803,-1.1817,-1.1822,-1.1832,-1.186,-1.1865,-1.1845,-1.1887,-1.1893,-1.1915,-1.1919,-1.1918,-1.192,-1.1974,-1.1974,-1.1974,-1.1959,0,0,0,0,0,0,-1.1723,-1.1731,-1.1738,-1.1768,-1.1777,-1.181,-1.1817,-1.1823,-1.1836,-1.1837,-1.1867,-1.1871,-1.1888,-1.1912,-1.1917,-1.1922,-1.1921,-1.1973,-1.1974,-1.1974,-1.196,-1.1959,-1.1959,0,0,0,0,0,-1.172,-1.1731,-1.1738,-1.1745,-1.1785,-1.181,-1.1816,-1.1834,-1.1836,-1.1843,-1.1861,-1.187,-1.1918,-1.1914,-1.192,-1.1926,-1.1973,-1.1974,-1.1974,-1.196,-1.1959,-1.1959,0,0,0,0,0,0,-1.1701,-1.1735,-1.1743,-1.1764,-1.1784,-1.1814,-1.1823,-1.1833,-1.1853,-1.1853,-1.1876,-1.1882,-1.1902,-1.1916,-1.1911,-1.1944,-1.1946,-1.1948,-1.1933,-1.1933,-1.1933,-1.1929,-1.1923,0,0,0,0,0,-1.1699,-1.1716,-1.1746,-1.1761,-1.1771,-1.1795,-1.1807,-1.182,-1.1841,-1.185,-1.1869,-1.189,-1.191,-1.1922,-1.1942,-1.1962,-1.1969,-1.1969,-1.1969,-1.1968,-1.197,-1.1982,-1.1982,-1.1976,-1.1976,-1.1976,0,0,-1.1695,-1.1716,-1.1726,-1.1758,-1.1775,-1.1793,-1.1802,-1.1821,-1.1834,-1.1853,-1.1875,-1.189,-1.1914,-1.1936,-1.1946,-1.1948,-1.1973,-1.1969,-1.1968,-1.197,-1.1982,-1.1983,-1.1983,-1.1976,-1.1976,-1.1976,0,0,-1.1697,-1.1715,-1.173,-1.1747,-1.1773,-1.1789,-1.1793,-1.1822,-1.1833,-1.1855,-1.187,-1.1886,-1.192,-1.1937,-1.195,-1.1959,-1.1969,-1.1965,-1.1963,-1.1975,-1.1975,-1.1976,-1.1979,-1.198,-1.1966,-1.1966,-1.1966,0,-1.1689,-1.1717,-1.1737,-1.1754,-1.1768,-1.1786,-1.1802,-1.1818,-1.1849,-1.1858,-1.186,-1.1903,-1.1921,-1.1946,-1.1949,-1.1959,-1.1964,-1.1962,-1.1973,-1.1974,-1.1975,-1.1979,-1.198,-1.1966,-1.1966,-1.1966,-1.1966,0,-1.1706,-1.1725,-1.1734,-1.1764,-1.1779,-1.1795,-1.1818,-1.1831,-1.1842,-1.1858,-1.1881,-1.1903,-1.1928,-1.1935,-1.1947,-1.1963,-1.1963,-1.1969,-1.1973,-1.1975,-1.1979,-1.198,-1.1965,-1.1965,-1.1965,-1.1965,0,0,-1.1697,-1.1738,-1.1741,-1.1755,-1.1785,-1.18,-1.1818,-1.1842,-1.1853,-1.1874,-1.1889,-1.1918,-1.1924,-1.1938,-1.1952,-1.1962,-1.1969,-1.1967,-1.1968,-1.1967,-1.1989,-1.1984,-1.1985,-1.1976,-1.1976,-1.1976,-1.1987,0,-1.1703,-1.1736,-1.1754,-1.1779,-1.1797,-1.1815,-1.183,-1.1851,-1.1866,-1.1884,-1.1901,-1.1921,-1.1927,-1.1936,-1.1947,-1.1966,-1.1974,-1.1965,-1.1991,-1.1991,-1.1984,-1.1987,-1.1982,-1.1991,-1.1988,-1.1989,-1.1989,0,-1.1715,-1.1736,-1.1762,-1.1791,-1.1799,-1.1813,-1.1837,-1.1854,-1.1877,-1.1888,-1.1905,-1.1919,-1.1939,-1.1941,-1.1968,-1.1962,-1.1974,-1.1985,-1.1985,-1.1988,-1.199,-1.199,-1.1994,-1.1995,-1.1991,-1.1991,-1.1991,0,-1.1706,-1.1741,-1.1761,-1.1772,-1.1806,-1.1816,-1.183,-1.1854,-1.1868,-1.1889,-1.1898,-1.1921,-1.1934,-1.1952,-1.1972,-1.1971,-1.1998,-1.2001,-1.2007,-1.2007,-1.2012,-1.2011,-1.2017,-1.2019,-1.2019,-1.2019,-1.2019,0,-1.1711,-1.1727,-1.1757,-1.177,-1.1788,-1.181,-1.1827,-1.1843,-1.1864,-1.1881,-1.1898,-1.1912,-1.1938,-1.1956,-1.1972,-1.1992,-1.1998,-1.2007,-1.2011,-1.2006,-1.2004,-1.2013,-1.2013,-1.2019,-1.2019,-1.2019,-1.2019,0,-1.1704,-1.1725,-1.1749,-1.1779,-1.1787,-1.1799,-1.1825,-1.1839,-1.1855,-1.1876,-1.1882,-1.1908,-1.193,-1.1952,-1.1982,-1.1992,-1.2013,-1.2018,-1.2005,-1.2007,-1.2012,-1.2011,-1.2024,-1.2027,-1.2027,-1.2027,-1.2027,0,-1.1706,-1.1718,-1.175,-1.1762,-1.1776,-1.1796,-1.181,-1.1832,-1.1846,-1.1875,-1.1884,-1.1908,-1.1928,-1.1963,-1.1985,-1.2008,-1.2014,-1.2017,-1.2017,-1.2012,-1.2014,-1.2013,-1.2014,-1.2016,-1.2016,-1.2016,-1.2016,0,-1.1707,-1.1717,-1.1737,-1.176,-1.1777,-1.1796,-1.1817,-1.1826,-1.1852,-1.1867,-1.189,-1.1906,-1.1937,-1.196,-1.1986,-1.2001,-1.2013,-1.2016,-1.2018,-1.2013,-1.2004,-1.2009,-1.2004,-1.2015,-1.2015,-1.2015,-1.2015,-1.2015,-1.1704,-1.1716,-1.1741,-1.1762,-1.178,-1.1799,-1.1813,-1.1831,-1.1851,-1.1878,-1.189,-1.1913,-1.1937,-1.1973,-1.1989,-1.2008,-1.201,-1.2014,-1.2015,-1.2016,-1.2014,-1.2002,-1.2012,-1.2012,-1.2012,-1.2012,-1.2012,0,-1.1707,-1.1723,-1.1743,-1.1771,-1.1788,-1.1798,-1.1821,-1.1835,-1.1855,-1.1877,-1.1896,-1.1923,-1.1946,-1.197,-1.1994,-1.2005,-1.2011,-1.2011,-1.201,-1.2013,-1.201,-1.2006,-1.2005,-1.2005,-1.2005,-1.2005,-1.2005,-1.2005,-1.171,-1.1731,-1.1744,-1.1774,-1.1791,-1.1814,-1.1826,-1.1844,-1.1861,-1.189,-1.1909,-1.1925,-1.1948,-1.1974,-1.1996,-1.2002,-1.201,-1.2008,-1.2016,-1.2013,-1.2014,-1.2014,-1.201,-1.201,-1.201,-1.2018,-1.2018,-1.2018]},{"header":{"parameterUnit":"m.s-1","parameterCategory":1,"la1":30.2991,"la2":30.254,"lo1":-89.0895,"lo2":-89.0444,"dy":0.0017,"dx":0.0017,"nx":28,"ny":28,"refTime":"2024-05-16T21:00:00:Z","depth":0,"parameterNumber":3,"parameterNumberName":"V-component_of_WINDS"},"data":[0,0,0,0,0,0,0,0,0,0,0,0,0,0,0,0,0,0,0,0,0,0,0,0,0,0,0,0,0,0,0,0,0,0,0,0,0,0,0,0,0,0,0,0,0,0,0,0,0,0,0,0,0,0,0,0,0,0,5.6791,5.6792,0,5.6892,5.6893,5.6894,5.6861,5.6859,5.6857,5.6855,5.6951,5.6956,5.696,0,0,0,0,0,0,0,0,0,0,0,0,0,5.6561,5.6566,5.6791,5.6792,5.6793,5.6892,5.6893,5.6895,5.6862,5.6859,5.6856,5.6854,5.695,5.6955,5.6961,0,0,0,0,0,0,0,0,0,0,0,0,0,5.6661,5.6567,5.6791,5.6789,5.679,5.6892,5.6893,5.6895,5.6862,5.6859,5.6856,5.6853,5.6948,5.6955,5.6962,5.7069,0,0,5.6983,5.6986,0,0,0,0,0,0,0,0,5.6656,5.667,5.6788,5.6789,5.679,5.6861,5.6848,5.6953,5.6863,5.6834,5.6855,5.6851,5.6923,5.6932,5.6958,5.7073,5.7078,5.6983,5.6987,5.699,5.6992,0,0,0,0,0,0,0,5.6649,5.6665,5.6831,5.679,5.6791,5.678,5.6791,5.6867,5.6896,5.6837,5.6834,5.6847,5.6923,5.6951,5.696,5.7079,5.6983,5.6989,5.6993,5.6996,5.7286,5.729,0,0,0,0,0,0,5.6642,5.666,5.6827,5.6834,5.6714,5.6787,5.6799,5.6841,5.6895,5.69,5.685,5.6845,5.6941,5.6952,5.6963,5.7092,5.699,5.6997,5.7001,5.7283,5.7287,5.7291,0,0,0,0,0,0,5.6637,5.6657,5.6823,5.6746,5.6767,5.6795,5.6842,5.6845,5.6873,5.6905,5.6909,5.6874,5.6939,5.6954,5.7043,5.7095,5.7,5.7006,5.7279,5.7284,5.7289,5.7352,0,0,0,0,0,0,5.6631,5.6656,5.6699,5.6748,5.6771,5.6904,5.6846,5.6849,5.6886,5.6881,5.6929,5.6933,5.6938,5.7033,5.705,5.7103,5.7011,5.7274,5.7281,5.7287,5.7345,5.7358,5.737,0,0,0,0,0,5.6623,5.6711,5.6701,5.6722,5.6826,5.6907,5.692,5.6926,5.689,5.6933,5.6953,5.6932,5.7087,5.7043,5.7061,5.7117,5.7271,5.7279,5.7287,5.7339,5.7356,5.737,0,0,0,0,0,0,5.6665,5.6717,5.6707,5.6814,5.6857,5.6902,5.6955,5.6943,5.6994,5.6987,5.6989,5.7,5.7093,5.7113,5.7063,5.7223,5.7173,5.7185,5.7207,5.7222,5.7235,5.7228,5.7017,0,0,0,0,0,5.6688,5.6752,5.6793,5.6883,5.6906,5.6927,5.6962,5.6963,5.7006,5.7023,5.705,5.7091,5.7148,5.7186,5.7241,5.7348,5.7357,5.7395,5.7407,5.7417,5.7428,5.7485,5.7502,5.7318,5.7318,5.7317,0,0,5.6734,5.677,5.681,5.6893,5.6926,5.699,5.6942,5.7012,5.7059,5.7033,5.712,5.7141,5.7186,5.7285,5.7329,5.7305,5.7481,5.7428,5.7436,5.7441,5.7495,5.7512,5.7528,5.7323,5.7322,5.7321,0,0,5.685,5.6885,5.6964,5.6999,5.705,5.7064,5.7083,5.7129,5.7143,5.7231,5.7212,5.7267,5.7367,5.74,5.7429,5.7558,5.754,5.7576,5.7641,5.7696,5.7711,5.7723,5.7769,5.7785,5.7586,5.7586,5.7586,0,5.69,5.7,5.7006,5.7078,5.7114,5.7096,5.7174,5.7207,5.7272,5.7297,5.7269,5.7394,5.7423,5.7528,5.756,5.7585,5.7605,5.757,5.7708,5.7721,5.7733,5.7777,5.7794,5.759,5.759,5.7589,5.7589,0,5.7058,5.7127,5.7184,5.7251,5.7293,5.7368,5.7383,5.7425,5.7422,5.7437,5.7526,5.756,5.7621,5.7646,5.7643,5.7751,5.7735,5.7708,5.7657,5.7755,5.7796,5.7812,5.7596,5.7594,5.7593,5.7592,0,0,5.7205,5.7275,5.7296,5.7326,5.7381,5.7433,5.7506,5.7568,5.7603,5.7649,5.7709,5.7794,5.7769,5.7803,5.7803,5.7851,5.795,5.7818,5.7819,5.7842,5.8071,5.8091,5.8111,5.7939,5.7942,5.7944,5.8067,0,5.7327,5.7459,5.7466,5.7585,5.7647,5.763,5.7693,5.7732,5.7749,5.7802,5.7818,5.7879,5.7842,5.7862,5.791,5.7929,5.7996,5.792,5.7993,5.7996,5.7983,5.8132,5.8154,5.8268,5.8083,5.8086,5.8088,0,5.7487,5.754,5.7666,5.7712,5.7738,5.7795,5.7853,5.7905,5.7948,5.7956,5.7994,5.7986,5.8058,5.8006,5.8104,5.8052,5.8082,5.8095,5.81,5.8107,5.8048,5.8143,5.8305,5.8322,5.8113,5.8111,5.8109,0,5.7582,5.7684,5.7773,5.7799,5.7854,5.7895,5.7919,5.796,5.7996,5.8045,5.8069,5.8125,5.8155,5.8197,5.8204,5.8165,5.8303,5.8251,5.831,5.831,5.834,5.8338,5.8509,5.8359,5.8359,5.8359,5.8358,0,5.7717,5.7795,5.7816,5.7871,5.7956,5.7962,5.8046,5.8067,5.8103,5.8159,5.8146,5.8198,5.8204,5.8257,5.8263,5.8343,5.8357,5.8364,5.8364,5.8366,5.8365,5.8385,5.8378,5.8363,5.8362,5.8362,5.8361,0,5.7838,5.7856,5.7951,5.7996,5.8009,5.807,5.8108,5.8158,5.8173,5.8244,5.8261,5.8283,5.8346,5.8357,5.8429,5.8432,5.8529,5.8521,5.8515,5.8514,5.8573,5.8567,5.8763,5.8789,5.8622,5.8624,5.8625,0,5.7924,5.7983,5.8035,5.8074,5.8101,5.8162,5.82,5.8207,5.8247,5.83,5.8344,5.8405,5.8455,5.8554,5.8575,5.863,5.8624,5.8688,5.8632,5.8631,5.8624,5.8621,5.8626,5.8699,5.8701,5.8703,5.8704,0,5.8073,5.8079,5.8136,5.8196,5.8242,5.8289,5.8333,5.8364,5.8376,5.8421,5.8486,5.8525,5.8599,5.866,5.8715,5.8737,5.8722,5.8721,5.8738,5.874,5.8734,5.8738,5.8545,5.8717,5.8716,5.8715,5.8714,5.8713,5.8179,5.8231,5.8276,5.834,5.8374,5.8415,5.8466,5.8487,5.8542,5.8605,5.8605,5.8676,5.8715,5.8788,5.8814,5.8867,5.8846,5.887,5.8876,5.8882,5.8888,5.8726,5.8877,5.8877,5.8876,5.8876,5.8876,0,5.8328,5.8357,5.8415,5.8478,5.8527,5.8511,5.8559,5.86,5.8664,5.8703,5.8753,5.8826,5.8884,5.891,5.8967,5.9005,5.8999,5.9019,5.9017,5.9022,5.8904,5.8884,5.9023,5.9023,5.9023,5.9023,5.9023,5.9023,5.8412,5.8499,5.851,5.8613,5.864,5.8711,5.874,5.8777,5.8809,5.8892,5.8942,5.8959,5.8992,5.9051,5.9103,5.9109,5.913,5.9153,5.9156,5.9045,5.903,5.9016,5.8997,5.9158,5.9158,5.9269,5.927,5.9271]}]]